Time,TemperatureF,DewpointF,PressureIn,WindDirection,WindDirectionDegrees,WindSpeedMPH,WindSpeedGustMPH,Humidity,HourlyPrecipIn,Conditions,Clouds,dailyrainin,SoftwareType,DateUTC
2013-05-25 00:02:00,50.0,39.0,30.35,NNE,32,0.0,5.0,67,0.00,,,0.00,,2013-05-25 04:02:00,
2013-05-25 00:12:00,50.0,39.0,30.35,NNE,32,0.0,5.0,67,0.00,,,0.00,,2013-05-25 04:12:00,
2013-05-25 00:23:00,50.0,39.0,30.35,NE,37,2.0,6.0,67,0.00,,,0.00,,2013-05-25 04:23:00,
2013-05-25 00:33:00,49.0,39.0,30.35,ENE,59,0.0,5.0,67,0.00,,,0.00,,2013-05-25 04:33:00,
2013-05-25 00:43:00,49.0,39.0,30.35,ENE,59,0.0,5.0,67,0.00,,,0.00,,2013-05-25 04:43:00,
2013-05-25 00:53:00,48.0,38.0,30.35,ENE,76,1.0,5.0,68,0.00,,,0.00,,2013-05-25 04:53:00,
2013-05-25 01:02:00,48.0,38.0,30.35,East,80,0.0,4.0,68,0.00,,,0.00,,2013-05-25 05:02:00,
2013-05-25 01:12:00,48.0,38.0,30.35,East,80,0.0,4.0,68,0.00,,,0.00,,2013-05-25 05:12:00,
2013-05-25 01:22:00,47.0,38.0,30.36,NE,56,0.0,2.0,70,0.00,,,0.00,,2013-05-25 05:22:00,
2013-05-25 01:32:00,46.0,37.0,30.36,ENE,57,0.0,2.0,71,0.00,,,0.00,,2013-05-25 05:32:00,
2013-05-25 01:42:00,46.0,37.0,30.36,ENE,57,0.0,2.0,71,0.00,,,0.00,,2013-05-25 05:42:00,
2013-05-25 01:52:00,46.0,37.0,30.35,ENE,57,0.0,1.0,72,0.00,,,0.00,,2013-05-25 05:52:00,
2013-05-25 02:02:00,45.0,37.0,30.36,ENE,57,0.0,1.0,72,0.00,,,0.00,,2013-05-25 06:02:00,
2013-05-25 02:12:00,45.0,37.0,30.35,ENE,57,0.0,0.0,74,0.00,,,0.00,,2013-05-25 06:12:00,
2013-05-25 02:21:00,45.0,37.0,30.35,ENE,57,0.0,0.0,74,0.00,,,0.00,,2013-05-25 06:21:00,
2013-05-25 02:32:00,44.0,37.0,30.35,ENE,57,0.0,0.0,76,0.00,,,0.00,,2013-05-25 06:32:00,
2013-05-25 02:42:00,44.0,37.0,30.35,ENE,57,0.0,0.0,76,0.00,,,0.00,,2013-05-25 06:42:00,
2013-05-25 02:52:00,43.0,37.0,30.35,ENE,57,0.0,0.0,79,0.00,,,0.00,,2013-05-25 06:52:00,
2013-05-25 03:01:00,42.0,37.0,30.34,ENE,57,0.0,0.0,81,0.00,,,0.00,,2013-05-25 07:01:00,
2013-05-25 03:11:00,42.0,37.0,30.34,ENE,57,0.0,0.0,81,0.00,,,0.00,,2013-05-25 07:11:00,
2013-05-25 03:21:00,41.0,36.0,30.34,ENE,57,0.0,0.0,83,0.00,,,0.00,,2013-05-25 07:21:00,
2013-05-25 03:32:00,41.0,37.0,30.32,ENE,57,0.0,0.0,85,0.00,,,0.00,,2013-05-25 07:32:00,
2013-05-25 03:42:00,41.0,37.0,30.32,ENE,57,0.0,0.0,85,0.00,,,0.00,,2013-05-25 07:42:00,
2013-05-25 03:52:00,40.0,36.0,30.32,ENE,57,0.0,0.0,87,0.00,,,0.00,,2013-05-25 07:52:00,
2013-05-25 04:02:00,40.0,37.0,30.33,ENE,57,0.0,0.0,88,0.00,,,0.00,,2013-05-25 08:02:00,
2013-05-25 04:11:00,40.0,37.0,30.33,ENE,57,0.0,0.0,88,0.00,,,0.00,,2013-05-25 08:11:00,
2013-05-25 04:22:00,40.0,37.0,30.32,ENE,57,0.0,0.0,88,0.00,,,0.00,,2013-05-25 08:22:00,
2013-05-25 04:32:00,39.0,36.0,30.31,ENE,57,0.0,0.0,89,0.00,,,0.00,,2013-05-25 08:32:00,
2013-05-25 04:42:00,40.0,37.0,30.30,ENE,57,0.0,1.0,90,0.00,,,0.00,,2013-05-25 08:42:00,
2013-05-25 04:52:00,40.0,37.0,30.30,ENE,57,0.0,1.0,90,0.00,,,0.00,,2013-05-25 08:52:00,
2013-05-25 05:01:00,39.0,36.0,30.31,ENE,57,0.0,0.0,89,0.00,,,0.00,,2013-05-25 09:01:00,
2013-05-25 05:11:00,39.0,36.0,30.31,ENE,57,0.0,0.0,89,0.00,,,0.00,,2013-05-25 09:11:00,
2013-05-25 05:21:00,39.0,36.0,30.30,ENE,57,0.0,0.0,90,0.00,,,0.00,,2013-05-25 09:21:00,
2013-05-25 05:33:00,39.0,36.0,30.31,ENE,57,0.0,0.0,90,0.00,,,0.00,,2013-05-25 09:33:00,
2013-05-25 05:42:00,39.0,36.0,30.31,ENE,57,0.0,0.0,90,0.00,,,0.00,,2013-05-25 09:42:00,
2013-05-25 05:53:00,39.0,37.0,30.32,ENE,57,0.0,0.0,91,0.00,,,0.00,,2013-05-25 09:53:00,
2013-05-25 06:02:00,39.0,37.0,30.33,ENE,57,0.0,0.0,92,0.00,,,0.00,,2013-05-25 10:02:00,
2013-05-25 06:12:00,39.0,37.0,30.33,ENE,57,0.0,0.0,92,0.00,,,0.00,,2013-05-25 10:12:00,
2013-05-25 06:22:00,39.0,37.0,30.33,ENE,57,0.0,1.0,93,0.00,,,0.00,,2013-05-25 10:22:00,
2013-05-25 06:32:00,40.0,38.0,30.34,ENE,57,0.0,0.0,93,0.00,,,0.00,,2013-05-25 10:32:00,
2013-05-25 06:42:00,40.0,38.0,30.34,ENE,57,0.0,0.0,93,0.00,,,0.00,,2013-05-25 10:42:00,
2013-05-25 06:52:00,40.0,38.0,30.35,ENE,57,0.0,2.0,93,0.00,,,0.00,,2013-05-25 10:52:00,
2013-05-25 07:02:00,41.0,40.0,30.34,ENE,57,0.0,1.0,97,0.00,,,0.00,,2013-05-25 11:02:00,
2013-05-25 07:12:00,41.0,40.0,30.34,ENE,57,0.0,1.0,97,0.00,,,0.00,,2013-05-25 11:12:00,
2013-05-25 07:21:00,42.0,39.0,30.32,SSE,150,1.0,4.0,90,0.00,,,0.00,,2013-05-25 11:21:00,
2013-05-25 07:32:00,43.0,40.0,30.38,SSE,157,0.0,0.0,89,0.00,,,0.00,,2013-05-25 11:32:00,
2013-05-25 07:41:00,43.0,40.0,30.38,SSE,157,0.0,0.0,89,0.00,,,0.00,,2013-05-25 11:41:00,
2013-05-25 07:52:00,44.0,41.0,30.37,SSE,157,0.0,1.0,89,0.00,,,0.00,,2013-05-25 11:52:00,
2013-05-25 08:01:00,44.0,41.0,30.38,SSE,161,0.0,0.0,88,0.00,,,0.00,,2013-05-25 12:01:00,
2013-05-25 08:12:00,44.0,41.0,30.38,SSE,161,0.0,0.0,88,0.00,,,0.00,,2013-05-25 12:12:00,
2013-05-25 08:22:00,45.0,41.0,30.39,SSE,161,0.0,1.0,87,0.00,,,0.00,,2013-05-25 12:22:00,
2013-05-25 08:32:00,46.0,42.0,30.37,SSE,161,0.0,2.0,86,0.00,,,0.00,,2013-05-25 12:32:00,
2013-05-25 08:42:00,46.0,42.0,30.37,SSE,161,0.0,2.0,86,0.00,,,0.00,,2013-05-25 12:42:00,
2013-05-25 08:52:00,46.0,42.0,30.36,SSE,155,0.0,2.0,85,0.00,,,0.00,,2013-05-25 12:52:00,
2013-05-25 09:02:00,46.0,42.0,30.35,SE,144,0.0,1.0,85,0.00,,,0.00,,2013-05-25 13:02:00,
2013-05-25 09:11:00,46.0,42.0,30.35,SE,144,0.0,1.0,85,0.00,,,0.00,,2013-05-25 13:11:00,
2013-05-25 09:21:00,47.0,43.0,30.35,SE,142,0.0,1.0,85,0.00,,,0.00,,2013-05-25 13:21:00,
2013-05-25 09:32:00,48.0,43.0,30.38,SE,142,0.0,0.0,83,0.00,,,0.00,,2013-05-25 13:32:00,
2013-05-25 09:42:00,48.0,43.0,30.38,SE,142,0.0,0.0,83,0.00,,,0.00,,2013-05-25 13:42:00,
2013-05-25 09:52:00,49.0,43.0,30.38,SE,141,0.0,1.0,81,0.00,,,0.00,,2013-05-25 13:52:00,
2013-05-25 10:02:00,50.0,44.0,30.38,SE,142,0.0,0.0,81,0.00,,,0.00,,2013-05-25 14:02:00,
2013-05-25 10:11:00,50.0,44.0,30.38,SE,142,0.0,0.0,81,0.00,,,0.00,,2013-05-25 14:11:00,
2013-05-25 10:22:00,50.0,44.0,30.38,SE,141,0.0,0.0,81,0.00,,,0.00,,2013-05-25 14:22:00,
2013-05-25 10:32:00,50.0,45.0,30.39,SE,142,0.0,0.0,82,0.00,,,0.00,,2013-05-25 14:32:00,
2013-05-25 10:42:00,50.0,45.0,30.39,SE,142,0.0,0.0,82,0.00,,,0.00,,2013-05-25 14:42:00,
2013-05-25 10:52:00,50.0,44.0,30.39,SE,142,0.0,0.0,80,0.00,,,0.00,,2013-05-25 14:52:00,
2013-05-25 11:01:00,51.0,44.0,30.38,SE,142,0.0,0.0,78,0.00,,,0.00,,2013-05-25 15:01:00,
2013-05-25 11:11:00,51.0,44.0,30.38,SE,142,0.0,0.0,78,0.00,,,0.00,,2013-05-25 15:11:00,
2013-05-25 11:22:00,52.0,45.0,30.38,SE,141,0.0,0.0,76,0.00,,,0.00,,2013-05-25 15:22:00,
2013-05-25 11:33:00,52.0,44.0,30.38,SE,142,0.0,0.0,75,0.00,,,0.00,,2013-05-25 15:33:00,
2013-05-25 11:43:00,52.0,44.0,30.38,SE,142,0.0,0.0,75,0.00,,,0.00,,2013-05-25 15:43:00,
2013-05-25 11:53:00,53.0,45.0,30.37,SE,142,0.0,0.0,73,0.00,,,0.00,,2013-05-25 15:53:00,
2013-05-25 12:03:00,54.0,47.0,30.37,SE,142,0.0,2.0,76,0.00,,,0.00,,2013-05-25 16:03:00,
2013-05-25 12:12:00,54.0,47.0,30.37,SE,142,0.0,2.0,76,0.00,,,0.00,,2013-05-25 16:12:00,
2013-05-25 12:23:00,54.0,45.0,30.37,East,87,0.0,2.0,72,0.00,,,0.00,,2013-05-25 16:23:00,
2013-05-25 12:32:00,55.0,46.0,30.36,East,84,0.0,1.0,71,0.00,,,0.00,,2013-05-25 16:32:00,
2013-05-25 12:42:00,55.0,46.0,30.36,East,84,0.0,1.0,71,0.00,,,0.00,,2013-05-25 16:42:00,
2013-05-25 12:52:00,55.0,45.0,30.36,East,84,0.0,1.0,68,0.00,,,0.00,,2013-05-25 16:52:00,
2013-05-25 13:02:00,56.0,45.0,30.37,ENE,74,0.0,3.0,67,0.00,,,0.00,,2013-05-25 17:02:00,
2013-05-25 13:11:00,56.0,45.0,30.37,ENE,74,0.0,3.0,67,0.00,,,0.00,,2013-05-25 17:11:00,
2013-05-25 13:22:00,56.0,46.0,30.37,ENE,74,0.0,1.0,70,0.00,,,0.00,,2013-05-25 17:22:00,
2013-05-25 13:32:00,56.0,45.0,30.37,ENE,74,0.0,0.0,67,0.00,,,0.00,,2013-05-25 17:32:00,
2013-05-25 13:42:00,56.0,45.0,30.37,ENE,74,0.0,0.0,67,0.00,,,0.00,,2013-05-25 17:42:00,
2013-05-25 13:52:00,56.0,47.0,30.37,ENE,74,0.0,0.0,71,0.00,,,0.00,,2013-05-25 17:52:00,
2013-05-25 14:01:00,56.0,46.0,30.37,ENE,74,0.0,2.0,68,0.00,,,0.00,,2013-05-25 18:01:00,
2013-05-25 14:11:00,56.0,46.0,30.37,ENE,74,0.0,2.0,68,0.00,,,0.00,,2013-05-25 18:11:00,
2013-05-25 14:21:00,57.0,44.0,30.36,ENE,74,0.0,1.0,62,0.00,,,0.00,,2013-05-25 18:21:00,
2013-05-25 14:32:00,58.0,43.0,30.36,ENE,74,0.0,1.0,58,0.00,,,0.00,,2013-05-25 18:32:00,
2013-05-25 14:42:00,58.0,43.0,30.36,ENE,74,0.0,1.0,58,0.00,,,0.00,,2013-05-25 18:42:00,
2013-05-25 14:52:00,58.0,41.0,30.35,ENE,74,0.0,2.0,54,0.00,,,0.00,,2013-05-25 18:52:00,
2013-05-25 15:01:00,58.0,41.0,30.35,ENE,74,0.0,1.0,53,0.00,,,0.00,,2013-05-25 19:01:00,
2013-05-25 15:11:00,58.0,41.0,30.35,ENE,74,0.0,1.0,53,0.00,,,0.00,,2013-05-25 19:11:00,
2013-05-25 15:21:00,58.0,40.0,30.33,ENE,74,0.0,1.0,51,0.00,,,0.00,,2013-05-25 19:21:00,
2013-05-25 15:32:00,59.0,42.0,30.32,ENE,74,0.0,2.0,54,0.00,,,0.00,,2013-05-25 19:32:00,
2013-05-25 15:42:00,59.0,42.0,30.32,ENE,74,0.0,2.0,54,0.00,,,0.00,,2013-05-25 19:42:00,
2013-05-25 15:52:00,60.0,38.0,30.32,ENE,74,0.0,1.0,44,0.00,,,0.00,,2013-05-25 19:52:00,
2013-05-25 16:02:00,60.0,39.0,30.31,ENE,74,0.0,1.0,45,0.00,,,0.00,,2013-05-25 20:02:00,
2013-05-25 16:11:00,60.0,39.0,30.31,ENE,74,0.0,1.0,45,0.00,,,0.00,,2013-05-25 20:11:00,
2013-05-25 16:21:00,61.0,43.0,30.31,ENE,74,0.0,1.0,52,0.00,,,0.00,,2013-05-25 20:21:00,
2013-05-25 16:32:00,61.0,43.0,30.30,ENE,74,0.0,0.0,52,0.00,,,0.00,,2013-05-25 20:32:00,
2013-05-25 16:42:00,61.0,43.0,30.30,ENE,74,0.0,0.0,52,0.00,,,0.00,,2013-05-25 20:42:00,
2013-05-25 16:52:00,61.0,40.0,30.30,ENE,74,0.0,1.0,45,0.00,,,0.00,,2013-05-25 20:52:00,
2013-05-25 17:02:00,61.0,42.0,30.29,ENE,74,0.0,1.0,49,0.00,,,0.00,,2013-05-25 21:02:00,
2013-05-25 17:11:00,61.0,42.0,30.29,ENE,74,0.0,1.0,49,0.00,,,0.00,,2013-05-25 21:11:00,
2013-05-25 17:21:00,60.0,43.0,30.28,ENE,74,0.0,0.0,54,0.00,,,0.00,,2013-05-25 21:21:00,
2013-05-25 17:33:00,60.0,47.0,30.26,ENE,74,0.0,1.0,62,0.00,,,0.00,,2013-05-25 21:33:00,
2013-05-25 17:43:00,60.0,47.0,30.26,ENE,74,0.0,1.0,62,0.00,,,0.00,,2013-05-25 21:43:00,
2013-05-25 17:53:00,60.0,47.0,30.23,SSE,165,0.0,2.0,61,0.00,,,0.00,,2013-05-25 21:53:00,
2013-05-25 18:03:00,60.0,42.0,30.22,SE,144,1.0,7.0,51,0.00,,,0.00,,2013-05-25 22:03:00,
2013-05-25 18:12:00,60.0,42.0,30.22,SE,144,1.0,7.0,51,0.00,,,0.00,,2013-05-25 22:12:00,
2013-05-25 18:22:00,60.0,40.0,30.23,SSE,153,1.0,6.0,47,0.00,,,0.00,,2013-05-25 22:22:00,
2013-05-25 18:32:00,61.0,41.0,30.25,ENE,78,0.0,5.0,48,0.00,,,0.00,,2013-05-25 22:32:00,
2013-05-25 18:42:00,61.0,41.0,30.25,ENE,78,0.0,5.0,48,0.00,,,0.00,,2013-05-25 22:42:00,
2013-05-25 18:52:00,60.0,43.0,30.27,ENE,78,0.0,1.0,54,0.00,,,0.00,,2013-05-25 22:52:00,
2013-05-25 19:02:00,59.0,42.0,30.28,ENE,78,0.0,0.0,54,0.00,,,0.00,,2013-05-25 23:02:00,
2013-05-25 19:12:00,59.0,42.0,30.28,ENE,78,0.0,0.0,54,0.00,,,0.00,,2013-05-25 23:12:00,
2013-05-25 19:22:00,59.0,44.0,30.29,ENE,78,0.0,1.0,57,0.00,,,0.00,,2013-05-25 23:22:00,
2013-05-25 19:32:00,59.0,45.0,30.29,ENE,78,0.0,0.0,59,0.00,,,0.00,,2013-05-25 23:32:00,
2013-05-25 19:42:00,58.0,43.0,30.29,ENE,78,0.0,1.0,58,0.00,,,0.00,,2013-05-25 23:42:00,
2013-05-25 19:52:00,58.0,43.0,30.29,ENE,78,0.0,1.0,58,0.00,,,0.00,,2013-05-25 23:52:00,
2013-05-25 20:01:00,58.0,45.0,30.29,ENE,78,0.0,1.0,61,0.00,,,0.00,,2013-05-26 00:01:00,
2013-05-25 20:11:00,58.0,45.0,30.29,ENE,78,0.0,1.0,61,0.00,,,0.00,,2013-05-26 00:11:00,
2013-05-25 20:21:00,57.0,47.0,30.28,ENE,78,0.0,1.0,70,0.00,,,0.00,,2013-05-26 00:21:00,
2013-05-25 20:31:00,56.0,49.0,30.29,ENE,78,0.0,1.0,78,0.00,,,0.00,,2013-05-26 00:31:00,
2013-05-25 20:42:00,56.0,49.0,30.29,ENE,78,0.0,1.0,78,0.00,,,0.00,,2013-05-26 00:42:00,
2013-05-25 20:52:00,55.0,49.0,30.29,ENE,78,0.0,0.0,79,0.01,,,0.01,,2013-05-26 00:52:00,
2013-05-25 21:01:00,53.0,48.0,30.29,ENE,78,0.0,0.0,82,0.01,,,0.01,,2013-05-26 01:01:00,
2013-05-25 21:11:00,53.0,48.0,30.29,ENE,78,0.0,0.0,82,0.01,,,0.01,,2013-05-26 01:11:00,
2013-05-25 21:21:00,52.0,48.0,30.29,ENE,78,0.0,0.0,85,0.01,,,0.01,,2013-05-26 01:21:00,
2013-05-25 21:32:00,52.0,48.0,30.29,ENE,78,0.0,0.0,86,0.01,,,0.01,,2013-05-26 01:32:00,
2013-05-25 21:42:00,52.0,48.0,30.29,ENE,78,0.0,0.0,86,0.01,,,0.01,,2013-05-26 01:42:00,
2013-05-25 21:52:00,51.0,48.0,30.29,ENE,78,0.0,0.0,88,0.00,,,0.01,,2013-05-26 01:52:00,
2013-05-25 22:02:00,51.0,48.0,30.30,ENE,78,0.0,0.0,88,0.00,,,0.01,,2013-05-26 02:02:00,
2013-05-25 22:11:00,51.0,48.0,30.30,ENE,78,0.0,0.0,88,0.00,,,0.01,,2013-05-26 02:11:00,
2013-05-25 22:21:00,51.0,48.0,30.31,ENE,78,0.0,0.0,89,0.01,,,0.02,,2013-05-26 02:21:00,
2013-05-25 22:32:00,51.0,48.0,30.31,ENE,78,0.0,0.0,90,0.01,,,0.02,,2013-05-26 02:32:00,
2013-05-25 22:42:00,51.0,48.0,30.31,ENE,78,0.0,0.0,90,0.01,,,0.02,,2013-05-26 02:42:00,
2013-05-25 22:52:00,51.0,48.0,30.31,ENE,78,0.0,0.0,91,0.01,,,0.02,,2013-05-26 02:52:00,
2013-05-25 23:01:00,51.0,49.0,30.31,ENE,78,0.0,0.0,92,0.01,,,0.02,,2013-05-26 03:01:00,
2013-05-25 23:11:00,51.0,49.0,30.31,ENE,78,0.0,0.0,92,0.01,,,0.02,,2013-05-26 03:11:00,
2013-05-25 23:21:00,51.0,49.0,30.31,ENE,78,0.0,0.0,92,0.00,,,0.02,,2013-05-26 03:21:00,
2013-05-25 23:33:00,51.0,49.0,30.31,ENE,78,0.0,0.0,92,0.00,,,0.02,,2013-05-26 03:33:00,
2013-05-25 23:42:00,51.0,49.0,30.31,ENE,78,0.0,0.0,92,0.00,,,0.02,,2013-05-26 03:42:00,
2013-05-25 23:53:00,51.0,49.0,30.31,ENE,78,0.0,0.0,92,0.00,,,0.02,,2013-05-26 03:53:00,